BISONSAT

Last updated on Sat Sep 19 2026 00:03:46 GMT+0000 (Coordinated Universal Time)

1 40974U 15058L 26261.36600774 .00012801 00000+0 57430-3 0 9996 2 40974 64.7569 231.8868 0086289 7.5240 352.7156 15.18160864129753
UTC large
Height (km)
Speed (km/s)
/
Latitude / Longitude
Inclination (degrees)
Orbital Period (minutes)
Azimuth
Elevation
Range (km)
Doppler Factor

Next 0 passes for location: London (51.5072 / 0.1276)

No passes found over London.
BISONSAT